TimePST,TemperatureF,Dew PointF,Humidity,Sea Level PressureIn,VisibilityMPH,Wind Direction,Wind SpeedMPH,Gust SpeedMPH,PrecipitationIn,Events,Conditions,WindDirDegrees,DateUTC
12:53 AM,35.1,26.1,70,30.28,10.0,SW,11.5,-,N/A,,Clear,220,2013-02-26 08:53:00
1:53 AM,36.0,26.1,67,30.29,10.0,SW,10.4,-,N/A,,Clear,230,2013-02-26 09:53:00
2:53 AM,34.0,25.0,70,30.30,10.0,SW,9.2,-,N/A,,Clear,230,2013-02-26 10:53:00
3:53 AM,35.1,25.0,67,30.31,10.0,SW,9.2,-,N/A,,Clear,220,2013-02-26 11:53:00
4:53 AM,33.1,24.1,70,30.33,10.0,SSW,9.2,-,N/A,,Clear,210,2013-02-26 12:53:00
5:53 AM,32.0,23.0,69,30.33,10.0,SW,6.9,-,N/A,,Clear,220,2013-02-26 13:53:00
6:53 AM,24.1,19.0,81,30.35,10.0,Calm,Calm,-,N/A,,Clear,0,2013-02-26 14:53:00
7:53 AM,35.1,25.0,67,30.36,10.0,SSW,3.5,-,N/A,,Clear,200,2013-02-26 15:53:00
8:53 AM,41.0,26.1,55,30.37,10.0,WSW,12.7,-,N/A,,Clear,240,2013-02-26 16:53:00
9:53 AM,45.0,27.0,49,30.37,10.0,WSW,9.2,-,N/A,,Clear,250,2013-02-26 17:53:00
10:53 AM,46.9,27.0,46,30.36,10.0,WSW,12.7,-,N/A,,Partly Cloudy,250,2013-02-26 18:53:00
11:53 AM,48.0,27.0,44,30.34,10.0,West,10.4,-,N/A,,Partly Cloudy,260,2013-02-26 19:53:00
12:53 PM,50.0,26.1,39,30.32,10.0,SW,6.9,-,N/A,,Clear,220,2013-02-26 20:53:00
1:53 PM,50.0,26.1,39,30.29,10.0,SE,5.8,-,N/A,,Clear,140,2013-02-26 21:53:00
2:53 PM,51.1,26.1,38,30.28,10.0,Calm,Calm,-,N/A,,Clear,0,2013-02-26 22:53:00
3:53 PM,51.1,24.1,35,30.27,10.0,Calm,Calm,-,N/A,,Clear,0,2013-02-26 23:53:00
4:53 PM,48.9,25.0,39,30.26,10.0,Calm,Calm,-,N/A,,Clear,0,2013-02-27 00:53:00
5:53 PM,44.1,28.0,53,30.25,10.0,ENE,4.6,-,N/A,,Clear,60,2013-02-27 01:53:00
6:53 PM,37.0,26.1,65,30.25,10.0,East,8.1,-,N/A,,Clear,80,2013-02-27 02:53:00
7:53 PM,34.0,26.1,73,30.24,10.0,ESE,4.6,-,N/A,,Clear,110,2013-02-27 03:53:00
8:53 PM,35.1,25.0,67,30.24,10.0,South,3.5,-,N/A,,Clear,180,2013-02-27 04:53:00
9:53 PM,34.0,25.0,70,30.24,10.0,SSW,8.1,-,N/A,,Clear,200,2013-02-27 05:53:00
10:53 PM,34.0,24.1,67,30.23,10.0,South,4.6,-,N/A,,Mostly Cloudy,190,2013-02-27 06:53:00
11:53 PM,36.0,24.1,62,30.25,10.0,SW,4.6,-,N/A,,Mostly Cloudy,230,2013-02-27 07:53:00